This is the latest recevied weather packets stored in our database for station/object N4QEP-13. If no packets are shown the sender has not sent any weather packets the latest 10 day(s).
| Time | Temp. | Humidity | Pressure | Rain* | Wind** | Luminosity | Snow |
|---|---|---|---|---|---|---|---|
| 1777882523 | 10° C | 74% | 1018.9 hPa | 0 mm | - | - | - |
| 1777881629 | 10° C | 73% | 1018.9 hPa | 0 mm | - | - | - |
| 1777880749 | 10° C | 71% | 1019.1 hPa | 0 mm | - | - | - |
| 1777879848 | 10.56° C | 70% | 1019.3 hPa | 0 mm | - | - | - |
| 1777878942 | 10.56° C | 71% | 1019.3 hPa | 0 mm | - | - | - |
| 1777878039 | 10.56° C | 72% | 1019.4 hPa | 0 mm | - | - | - |
| 1777877138 | 10.56° C | 71% | 1019.5 hPa | 0 mm | - | - | - |
| 1777876241 | 11.11° C | 71% | 1019.6 hPa | 0 mm | - | - | - |
| 1777875334 | 11.11° C | 70% | 1019.7 hPa | 0 mm | - | - | - |
| 1777874430 | 11.67° C | 70% | 1019.8 hPa | 0 mm | - | - | - |
| 1777873529 | 11.67° C | 71% | 1020 hPa | 0 mm | - | - | - |
| 1777872626 | 11.67° C | 69% | 1020 hPa | 0 mm | - | - | - |
| 1777871723 | 11.67° C | 67% | 1020 hPa | 0 mm | - | - | - |
| 1777870819 | 12.22° C | 67% | 1019.8 hPa | 0 mm | - | - | - |
| 1777869917 | 12.78° C | 66% | 1019.8 hPa | 0 mm | - | - | - |
| 1777869017 | 12.22° C | 67% | 1019.9 hPa | 0 mm | - | - | - |
| 1777868145 | 12.78° C | 66% | 1019.7 hPa | 0 mm | - | - | - |
| 1777867263 | 12.78° C | 66% | 1019.6 hPa | 0 mm | - | - | - |
| 1777866342 | 13.33° C | 65% | 1019.6 hPa | 0 mm | - | - | - |
| 1777865442 | 13.89° C | 64% | 1019.6 hPa | 0 mm | - | - | - |
| 1777864542 | 13.89° C | 63% | 1019.7 hPa | 0 mm | - | - | - |
| 1777863641 | 13.89° C | 61% | 1019.8 hPa | 0 mm | - | - | - |
| 1777862711 | 13.89° C | 61% | 1019.7 hPa | 0 mm | - | - | - |
| 1777861811 | 13.89° C | 60% | 1019.6 hPa | 0 mm | - | - | - |
| 1777860908 | 14.44° C | 59% | 1019.4 hPa | 0 mm | - | - | - |
* Rain latest hour (hover to see other rain measurements)
** Current wind speed in m/s (hover to see current wind gust speed)